Regional Weather Roundup
Issued by NWS

Home | Current Version | Previous Version | Text Only | Print | Product List | Glossary Off
Versions: 1 2 3 4 5 6 7 8 9 10 11 12 13 14 15 16 17 18 19 20 21 22 23 24 25 26 27 28 29 30 31 32 33 34 35 36 37 38 39 40 41 42 43 44 45 46 47 48 49 50

000
ASUS43 KFSD 271302
RWRSD

WEATHER ROUNDUP FOR SOUTH DAKOTA
NATIONAL WEATHER SERVICE SIOUX FALLS SD
800 AM CDT SAT AUG 27 2016

NOTE: "FAIR" INDICATES FEW OR NO CLOUDS BELOW 12,000 FEET WITH NO
SIGNIFICANT WEATHER AND/OR OBSTRUCTIONS TO VISIBILITY.


SDZ001>005-009-010-012>017-271400-
NORTHWEST AND NORTH CENTRAL SOUTH DAKOTA

CITY           SKY/WX    TMP DP  RH WIND       PRES   REMARKS
BUFFALO          N/A     47  47 100 W3        29.91S
FAITH            N/A     52  52 100 SW5       29.98R
MOBRIDGE       CLEAR     56  52  86 CALM      29.94R
$$

SDZ012>016-024>037-041>051-057-063-072>074-271400-
SOUTHWEST AND SOUTH CENTRAL SOUTH DAKOTA

CITY           SKY/WX    TMP DP  RH WIND       PRES   REMARKS
RAPID CTY ARPT PTCLDY    54  52  93 SE6       30.00S
PIERRE         CLEAR     56  55  97 S6        29.96S
CUSTER         CLEAR     50  47  89 NW5       30.10S
ELLSWORTH AFB  MOCLDY    56  54  91 S5        29.98S
PHILIP         CLOUDY    55  52  89 CALM      29.99F
PINE RIDGE     CLOUDY    52  52 100 CALM      30.05R
WINNER         FAIR      61  57  87 S8        29.98S
$$

SDZ004>011-016>023-039-040-271400-
NORTHEAST SOUTH DAKOTA

CITY           SKY/WX    TMP DP  RH WIND       PRES   REMARKS
ABERDEEN       PTSUNNY   60  58  92 S8        29.97R
WATERTOWN      CLOUDY    62  59  90 SE9       30.01S
BROOKINGS      CLOUDY    59  57  93 SE6       30.02F
$$

SDZ017-020-022-023-036>040-048>070-271400-
SOUTHEAST SOUTH DAKOTA

CITY           SKY/WX    TMP DP  RH WIND       PRES   REMARKS
SIOUX FALLS    CLOUDY    62  62 100 E5        30.02S
HURON          FOG       59  59 100 SE8       29.98R VSB 1/4
CHAMBERLAIN    MOSUNNY   58  58 100 CALM      29.99R FOG
MITCHELL       CLOUDY    63  61  93 SE9       30.00S
YANKTON        CLOUDY    63  61  94 CALM      30.01S
$$

ABBREVIATIONS USED IN REMARKS
   TC - TEMPERATURE IN CELSIUS
  WCI - WIND CHILL INDEX
   HX - HEAT INDEX
  VSB - VISIBILITY





USA.gov is the U.S. government's official web portal to all federal, state and local government web resources and services.